Change the Weather History Date:

Monday, April 1, 2013

  Actual Average Record
Temperature  
Mean Temperature 57 °F -  
Max Temperature 77 °F 73 °F 78 °F (1998)
Min Temperature 37 °F 39 °F 28 °F (2009)
Degree Days  
Heating Degree Days 8    
Growing Degree Days 7 (Base 50)    
Moisture  
Dew Point 35 °F    
Average Humidity 52    
Maximum Humidity 93    
Minimum Humidity 9    
Precipitation  
Precipitation 0.00 in - - ()
Sea Level Pressure  
Sea Level Pressure 30.19 in    
Wind  
Wind Speed 2 mph ()    
Max Wind Speed 12 mph    
Max Gust Speed -    
Visibility 6.8 miles    
Events      
Averages and records for this station are not official NWS values.
T = Trace of Precipitation, MM = Missing Value Source: Averaged Metar Reports

Daily Weather History Graph

Daily Weather History Graph

Search for Another Location

Airport or City:

Trip Planner

Search our weather history database for the weather conditions in past years. The results will help you decide how hot, cold, wet, or windy it might be!

Date:

Astronomy

Apr. 01, 2013 Rise Set
Actual Time 6:31 AM CST 6:52 PM CST
Civil Twilight 6:09 AM CST 7:14 PM CST
Nautical Twilight 5:44 AM CST 7:40 PM CST
Astronomical Twilight 5:18 AM CST 8:06 PM CST
Moon No Moon Rise 10:54 AM CST (4/1)
Length of Visible Light 13h 04m
Length of Day
12h 20m
Waning Gibbous, 66% of the Moon is Illuminated
Apr 1
Waning Gibbous
Apr 2
Last Quarter
Apr 10
New
Apr 18
First Quarter
Apr 25
Full

Hourly Weather History & Observations

Time (CST) Temp. Windchill Dew Point Humidity Pressure Visibility Wind Dir Wind Speed Gust Speed Precip Events Conditions
12:45 AM 46.4 °F - 42.8 °F 87% 30.39 in 7.0 mi Calm Calm - N/A   Mostly Cloudy
1:55 AM 46.4 °F - 41.0 °F 81% 30.37 in 7.0 mi Calm Calm - N/A   Scattered Clouds
2:45 AM 44.6 °F 43.1 °F 41.0 °F 87% 29.75 in 7.0 mi WSW 3.5 mph - N/A   Scattered Clouds
3:41 AM 41.0 °F 39.0 °F 39.2 °F 93% 30.36 in 7.0 mi ESE 3.5 mph - N/A   Scattered Clouds
4:44 AM 42.8 °F - 39.2 °F 87% 30.37 in 7.0 mi Calm Calm - N/A   Clear
5:47 AM 41.0 °F - 37.4 °F 87% 29.91 in 7.0 mi Calm Calm - N/A   Clear
6:43 AM 37.4 °F 34.9 °F 35.6 °F 93% 30.40 in 5.0 mi ENE 3.5 mph - N/A   Mostly Cloudy
7:45 AM 44.6 °F 43.1 °F 41.0 °F 87% 30.42 in 5.0 mi ESE 3.5 mph - N/A   Mostly Cloudy
8:46 AM 53.6 °F - 44.6 °F 72% 29.94 in 7.0 mi ENE 3.5 mph - N/A   Mostly Cloudy
9:46 AM 60.8 °F - 44.6 °F 55% 30.42 in 7.0 mi Calm Calm - N/A   Mostly Cloudy
10:46 AM 68.0 °F - 32.0 °F 26% 30.41 in 7.0 mi NNW 5.8 mph - N/A   Mostly Cloudy
11:46 AM 73.4 °F - 24.8 °F 16% 30.13 in 7.0 mi NE 3.5 mph - N/A   Mostly Cloudy
12:44 PM 75.2 °F - 19.4 °F 12% 30.35 in 7.0 mi NE 3.5 mph - N/A   Mostly Cloudy
1:44 PM 77.0 °F - 14.0 °F 9% 30.32 in 7.0 mi Calm Calm - N/A   Mostly Cloudy
2:43 PM 75.2 °F - 19.4 °F 12% 29.70 in 7.0 mi South 10.4 mph - N/A   Mostly Cloudy
3:41 PM 73.4 °F - 30.2 °F 20% 30.27 in 7.0 mi South 11.5 mph - N/A   Mostly Cloudy
4:45 PM 71.6 °F - 32.0 °F 23% 30.27 in 7.0 mi ENE 10.4 mph - N/A   Overcast
5:44 PM 68.0 °F - 39.2 °F 35% 29.79 in 7.0 mi East 8.1 mph - N/A   Overcast
6:47 PM 64.4 °F - 39.2 °F 40% 30.31 in 7.0 mi East 9.2 mph - N/A   Overcast
7:42 PM 60.8 °F - 41.0 °F 48% 30.33 in 7.0 mi Calm Calm - N/A   Mostly Cloudy
8:42 PM 62.6 °F - 39.2 °F 42% 29.80 in 7.0 mi Calm Calm - N/A   Mostly Cloudy
9:45 PM 59.0 °F - 39.2 °F 48% 30.37 in 7.0 mi Calm Calm - N/A   Mostly Cloudy
10:45 PM 57.2 °F - 37.4 °F 48% 30.38 in 7.0 mi Calm Calm - N/A   Mostly Cloudy
11:45 PM 57.2 °F - 35.6 °F 44% 29.71 in 6.0 mi NNE 3.5 mph - N/A   Mostly Cloudy